Location: Unspecified
(51.0000°N, 12.0000°E)
Time: 23:51:25
(UTC+01:00)

ISS - Pass Details

Date: 02 December 2020
Orbit: 418 x 419 km, 51.6° (Epoch: 18 January)

Event Time Altitude Azimuth Distance (km) Brightness Sun altitude
Rises 18:06:45 0° 282° (WNW) 2,370 1.3 -17.8°
Reaches altitude 10° 18:08:51 10° 281° (W) 1,504 0.1 -18.1°
Maximum altitude 18:12:13 82° 196° (SSW) 429 -3.8 -18.6°
Enters shadow 18:12:43 62° 120° (ESE) 478 -3.8 -18.7°
